Terug naar catalogus

FENGYUN 1C DEB

ActiefSSO
NORAD 36196·DEBRIS·🇨🇳 China

Gelanceerd May 10, 1999 vanaf Taiyuan Satellite Launch Center

Loading…

Volgende Passages (komende 24 uur)

TLE

VerouderdSource: Space-Track

Epoch: Aug 26, 2024, 15:07 UTC

1 36196U 99025DTV 24239.63022980  .00016719  00000-0  64321-2 0  9992
2 36196  99.0570  26.4041 0036100 121.4279 239.0440 14.30049182579375

Volg FENGYUN 1C DEB in realtime met AllMySat

Download on the App Store